Tracking 30685 objects as of 17-Jun-2025
HD Live streaming from Space Station
objects crossing your sky now

STARLINK-4296

Track STARLINK-4296 now!
10-day predictions
STARLINK-4296 is classified as:


NORAD ID: 52995
Int'l Code: 2022-076K
Perigee: 546.1 km
Apogee: 547.7 km
Inclination: 53.2 °
Period: 95.4 minutes
Semi major axis: 6917 km
RCS: Unknown
Launch date: July 7, 2022
Source: United States (US)
Launch site: AIR FORCE EASTERN TEST RANGE (AFETR)
Your satellite tracking list
Your tracking list is empty




NASA's NSSDC Master Catalog

Two Line Element Set (TLE):
1 52995U 22076K   25168.46783715  .00003312  00000-0  22617-3 0  9990
2 52995  53.2158 204.7456 0001165  84.5168 275.5957 15.08824883163275
Source of the keplerian elements: AFSPC